Weather History for KMTO - October, 2011

Change the Weather History Date:

Tuesday, October 25, 2011

  Actual Average Record
Temperature  
Mean Temperature 62 °F 52 °F  
Max Temperature 75 °F 62 °F 82 °F (1963)
Min Temperature 49 °F 42 °F 26 °F (2013)
Degree Days  
Heating Degree Days 3 13  
Month to date heating degree days 190 247  
Since 1 July heating degree days 299 318  
Cooling Degree Days 0 0  
Month to date cooling degree days 17 15  
Year to date cooling degree days 1308 1053  
Growing Degree Days 12 (Base 50)    
Moisture  
Dew Point 43 °F    
Average Humidity 50    
Maximum Humidity 66    
Minimum Humidity 33    
Precipitation  
Precipitation 0.00 in 0.09 in 1.09 in (2002)
Month to date precipitation 3.18 2.30  
Year to date precipitation 30.09 31.27  
Sea Level Pressure  
Sea Level Pressure 29.98 in    
Wind  
Wind Speed 14 mph (South)    
Max Wind Speed 26 mph    
Max Gust Speed 38 mph    
Visibility 10 miles    
Events      
T = Trace of Precipitation, MM = Missing Value Source: NWS Daily Summary

Daily Weather History Graph

Daily Weather History Graph

Search for Another Location

Airport or City:

Trip Planner

Search our weather history database for the weather conditions in past years. The results will help you decide how hot, cold, wet, or windy it might be!

Date:

Astronomy

Oct. 25, 2011 Rise Set
Actual Time 7:13 AM CDT 6:00 PM CDT
Civil Twilight 6:45 AM CDT 6:27 PM CDT
Nautical Twilight 6:14 AM CDT 6:59 PM CDT
Astronomical Twilight 5:43 AM CDT 7:30 PM CDT
Moon 5:45 AM CDT (10/25) 5:01 PM CDT (10/25)
Length of Visible Light 11h 42m
Length of Day
10h 47m
Waning Crescent, 2% of the Moon is Illuminated
Oct 25
Waning Crescent
Oct 26
New
Nov 2
First Quarter
Nov 10
Full
Nov 18
Last Quarter

Hourly Weather History & Observations

Time (CDT) Temp. Dew Point Humidity Pressure Visibility Wind Dir Wind Speed Gust Speed Precip Events Conditions
12:53 AM 52.0 °F 37.0 °F 57% 30.14 in 10.0 mi SSE 8.1 mph - N/A   Clear
1:53 AM 51.1 °F 37.0 °F 59% 30.14 in 10.0 mi South 8.1 mph - N/A   Clear
2:53 AM 51.1 °F 37.0 °F 59% 30.14 in 10.0 mi SSE 10.4 mph - N/A   Clear
3:53 AM 51.1 °F 37.0 °F 59% 30.12 in 10.0 mi South 9.2 mph - N/A   Clear
4:53 AM 51.1 °F 37.0 °F 59% 30.12 in 10.0 mi South 11.5 mph - N/A   Clear
5:53 AM 50.0 °F 37.0 °F 61% 30.12 in 10.0 mi South 10.4 mph - N/A   Clear
7:53 AM 50.0 °F 39.0 °F 66% 30.11 in 10.0 mi SSE 13.8 mph - N/A   Clear
8:53 AM 54.0 °F 43.0 °F 66% 30.10 in 10.0 mi South 13.8 mph - N/A   Clear
9:53 AM 61.0 °F 48.0 °F 62% 30.07 in 10.0 mi South 12.7 mph 21.9 mph N/A   Clear
10:53 AM 66.0 °F 50.0 °F 56% 30.05 in 10.0 mi South 17.3 mph 27.6 mph N/A   Clear
11:53 AM 68.0 °F - N/A% 30.03 in - North - - N/A   Clear
12:53 PM 71.1 °F 50.0 °F 47% 29.98 in - North - - N/A   Clear
1:53 PM 73.9 °F 48.0 °F 40% 29.92 in 10.0 mi South 21.9 mph 35.7 mph N/A   Clear
2:53 PM 73.9 °F 46.0 °F 37% 29.88 in 10.0 mi South 25.3 mph 35.7 mph N/A   Clear
3:53 PM 73.9 °F 44.1 °F 34% 29.86 in 10.0 mi South 17.3 mph 29.9 mph N/A   Clear
4:53 PM 73.9 °F 42.1 °F 32% 29.84 in 10.0 mi South 16.1 mph 25.3 mph N/A   Clear
5:53 PM 71.1 °F 44.1 °F 38% 29.82 in 10.0 mi South 15.0 mph 24.2 mph N/A   Clear
6:53 PM 70.0 °F 45.0 °F 41% 29.81 in 10.0 mi South 12.7 mph 20.7 mph N/A   Clear
8:53 PM 68.0 °F 46.9 °F 47% 29.84 in 10.0 mi South 12.7 mph - N/A   Clear
9:53 PM 66.9 °F 46.0 °F 47% 29.83 in 10.0 mi South 15.0 mph 23.0 mph N/A   Partly Cloudy
10:53 PM 66.9 °F 46.0 °F 47% 29.83 in 10.0 mi South 11.5 mph - N/A   Clear
11:53 PM 66.0 °F 46.0 °F 48% 29.82 in 10.0 mi SSW 9.2 mph - N/A   Clear